Regional Weather Roundup
Issued by NWS

Home | Current Version | Previous Version | Text Only | Print | Product List | Glossary On
Versions: 1 2 3 4 5 6 7 8 9 10 11 12 13 14 15 16 17 18 19 20 21 22 23 24 25 26 27 28 29 30 31 32 33 34 35 36 37 38 39 40 41 42 43 44 45 46 47 48 49 50
000
ASUS42 KKEY 250010
RWRKEY

FLORIDA REGIONAL WEATHER ROUNDUP FOR THE FLORIDA KEYS
NATIONAL WEATHER SERVICE KEY WEST FLORIDA
700 PM EST FRI NOV 24 2017

...SOUTH FLORIDA AND THE KEYS...

CITY           SKY/WX    TMP DP  RH WIND       PRES   REMARKS
FORT MYERS     CLOUDY    70  62  76 NW5       29.94R
SW REGIONAL AP CLOUDY    68  64  87 NW3       29.95R
NAPLES         PTCLDY    69  61  75 NW6       29.95R
MIAMI          PTCLDY    77  64  64 W9        29.90S
WEST KENDALL   CLEAR     68  63  84 W8        29.91R
HOMESTEAD      CLEAR     73  68  84 SW5       29.90R
MARATHON       CLEAR     74  66  76 NW9       29.92R
KEY WEST INTL  PTCLDY    74  67  78 NW10      29.94R HAZE

...INTERNATIONAL WEATHER...

CITY           SKY/WX    TMP DP  RH WIND       PRES   REMARKS
NASSAU BAHAMAS LGT RAIN  79  75  89 CALM      29.93R
CANCUN MEXICO  CLEAR     70  66  88 CALM      29.97R
COZUMEL MEXICO PTCLDY    77  66  69 N10       29.95R

ADJACENT COASTAL WATERS...

STATION/POSITION TIME  SKY/WX   TEMP    WIND        PRES    WAVE
                                AIR SEA DIR/SP/G            HT/PER
                 (UTC)          (F)     (DEG/KT/KT) (MB)    (FT/S)
PULASKI SHOAL LI 0000            75      10/ 10/ 11 1013.9R
SAND KEY         2350            74                 1014.4R
LONG KEY         NOT AVBL
MOLASSES REEF    0000            76 80  330/ 11/ 12 1013.3R
FOWEY ROCKS      0000            76 79  270/ 13/ 14 1013.2R
Buoy 42097       2330               79                N/A     4/ 7

$$



USA.gov is the U.S. government's official web portal to all federal, state and local government web resources and services.